Total_Precipitation_Accumulation
0.02 0.03 0.04 0.06 0.08 0.10 0.13 0.16 0.18 0.18 0.20 0.23 0.29 0.33 0.34 0.40 0.57 0.71 0.68 0.56 0.55 0.58 0.60 0.64 0.67 0.69 0.67 0.58 0.56 0.55 0.57 0.62 0.54 0.39 0.30 0.31 0.28 0.22 0.18 0.13 0.09 0.06 0.04
0.02 0.02 0.02 0.04 0.06 0.07 0.09 0.12 0.16 0.17 0.17 0.16 0.19 0.23 0.26 0.32 0.47 0.77 0.92 0.92 0.84 0.70 0.67 0.75 0.75 0.68 0.59 0.53 0.51 0.51 0.53 0.58 0.51 0.35 0.29 0.28 0.26 0.24 0.20 0.17 0.11 0.07 0.05
0.01 0.02 0.02 0.02 0.03 0.04 0.06 0.09 0.12 0.15 0.16 0.16 0.17 0.21 0.26 0.27 0.34 0.54 0.75 0.86 0.86 0.77 0.73 0.69 0.65 0.62 0.54 0.47 0.42 0.40 0.42 0.52 0.48 0.33 0.29 0.26 0.26 0.26 0.23 0.19 0.15 0.11 0.07
0.00 0.01 0.01 0.01 0.02 0.04 0.05 0.07 0.10 0.12 0.14 0.17 0.21 0.25 0.26 0.23 0.25 0.37 0.52 0.61 0.66 0.68 0.68 0.63 0.56 0.49 0.49 0.46 0.39 0.34 0.34 0.35 0.33 0.29 0.27 0.28 0.29 0.28 0.23 0.20 0.17 0.12 0.08
0.02 0.04 0.03 0.03 0.03 0.03 0.04 0.06 0.07 0.08 0.09 0.14 0.21 0.23 0.21 0.19 0.25 0.37 0.40 0.36 0.39 0.45 0.46 0.43 0.44 0.48 0.45 0.44 0.37 0.31 0.29 0.27 0.27 0.26 0.25 0.27 0.31 0.32 0.26 0.17 0.14 0.12 0.08
0.07 0.09 0.07 0.07 0.07 0.06 0.07 0.07 0.07 0.08 0.10 0.12 0.14 0.18 0.17 0.16 0.23 0.26 0.23 0.21 0.22 0.25 0.28 0.25 0.23 0.29 0.35 0.36 0.30 0.26 0.24 0.22 0.23 0.24 0.26 0.26 0.27 0.25 0.20 0.16 0.12 0.09 0.09
0.05 0.10 0.10 0.10 0.09 0.07 0.06 0.06 0.06 0.08 0.11 0.13 0.14 0.16 0.17 0.18 0.16 0.13 0.11 0.10 0.12 0.16 0.18 0.18 0.15 0.15 0.21 0.22 0.18 0.14 0.14 0.15 0.17 0.21 0.25 0.23 0.22 0.20 0.16 0.17 0.16 0.12 0.08
0.03 0.09 0.14 0.15 0.13 0.10 0.10 0.10 0.10 0.11 0.12 0.14 0.16 0.18 0.21 0.23 0.18 0.12 0.09 0.08 0.09 0.13 0.14 0.13 0.12 0.13 0.14 0.15 0.15 0.12 0.09 0.08 0.11 0.16 0.19 0.19 0.17 0.15 0.14 0.16 0.16 0.14 0.09
0.06 0.09 0.14 0.20 0.20 0.18 0.17 0.18 0.18 0.19 0.18 0.17 0.17 0.20 0.24 0.27 0.23 0.17 0.13 0.10 0.13 0.14 0.15 0.14 0.12 0.09 0.10 0.11 0.12 0.11 0.08 0.07 0.08 0.11 0.14 0.17 0.18 0.16 0.12 0.11 0.10 0.08 0.06
0.10 0.14 0.19 0.25 0.27 0.26 0.25 0.26 0.26 0.27 0.25 0.22 0.19 0.20 0.25 0.33 0.30 0.22 0.17 0.14 0.18 0.18 0.18 0.17 0.15 0.11 0.09 0.08 0.10 0.09 0.07 0.04 0.04 0.06 0.09 0.13 0.14 0.14 0.12 0.08 0.06 0.04 0.03
0.19 0.22 0.26 0.30 0.34 0.32 0.31 0.31 0.31 0.32 0.32 0.31 0.28 0.26 0.27 0.36 0.37 0.27 0.23 0.21 0.24 0.26 0.22 0.20 0.17 0.14 0.11 0.09 0.08 0.09 0.06 0.04 0.03 0.04 0.07 0.11 0.13 0.14 0.11 0.08 0.07 0.04 0.02
0.29 0.29 0.32 0.37 0.37 0.35 0.41 0.46 0.48 0.47 0.44 0.40 0.43 0.40 0.35 0.38 0.39 0.32 0.26 0.24 0.30 0.33 0.31 0.25 0.22 0.19 0.14 0.13 0.10 0.09 0.07 0.05 0.04 0.05 0.07 0.09 0.11 0.12 0.11 0.09 0.07 0.04 0.02
0.28 0.30 0.34 0.42 0.45 0.46 0.48 0.51 0.58 0.61 0.57 0.52 0.53 0.55 0.50 0.46 0.46 0.40 0.32 0.26 0.32 0.40 0.41 0.39 0.32 0.27 0.23 0.18 0.17 0.14 0.09 0.05 0.05 0.05 0.06 0.06 0.06 0.06 0.06 0.07 0.07 0.04 0.02
0.33 0.34 0.36 0.42 0.47 0.54 0.60 0.58 0.59 0.62 0.64 0.64 0.60 0.55 0.53 0.52 0.54 0.46 0.37 0.30 0.34 0.47 0.51 0.50 0.44 0.39 0.35 0.29 0.26 0.22 0.14 0.08 0.06 0.05 0.05 0.05 0.06 0.06 0.05 0.04 0.04 0.03 0.02
0.36 0.35 0.39 0.42 0.47 0.57 0.66 0.66 0.62 0.63 0.68 0.66 0.57 0.49 0.47 0.47 0.55 0.55 0.41 0.36 0.43 0.54 0.62 0.64 0.59 0.52 0.48 0.41 0.33 0.28 0.21 0.15 0.10 0.06 0.06 0.06 0.06 0.06 0.04 0.03 0.02 0.01 0.01
0.39 0.37 0.39 0.42 0.47 0.54 0.63 0.66 0.56 0.50 0.51 0.51 0.45 0.37 0.32 0.34 0.47 0.54 0.50 0.45 0.50 0.60 0.71 0.73 0.64 0.55 0.50 0.44 0.36 0.31 0.27 0.20 0.13 0.08 0.07 0.06 0.05 0.05 0.04 0.02 0.02 0.01 0.01
0.47 0.41 0.43 0.44 0.45 0.48 0.53 0.61 0.62 0.50 0.41 0.37 0.30 0.22 0.20 0.23 0.36 0.47 0.55 0.54 0.54 0.56 0.63 0.66 0.59 0.54 0.47 0.44 0.36 0.29 0.26 0.21 0.15 0.10 0.06 0.05 0.04 0.03 0.03 0.02 0.01 0.01 0.01
0.65 0.54 0.44 0.41 0.44 0.47 0.49 0.54 0.61 0.62 0.53 0.40 0.27 0.18 0.16 0.20 0.31 0.46 0.58 0.57 0.58 0.55 0.54 0.55 0.51 0.49 0.44 0.42 0.35 0.29 0.24 0.20 0.15 0.11 0.06 0.05 0.04 0.03 0.02 0.02 0.01 0.00 0.00
0.59 0.61 0.52 0.45 0.45 0.48 0.49 0.51 0.56 0.60 0.64 0.60 0.40 0.22 0.17 0.23 0.34 0.48 0.58 0.54 0.51 0.49 0.47 0.44 0.43 0.41 0.40 0.38 0.33 0.28 0.23 0.18 0.13 0.09 0.05 0.03 0.03 0.03 0.01 0.01 0.00 0.00 0.00
0.44 0.42 0.42 0.47 0.48 0.50 0.51 0.50 0.52 0.59 0.63 0.63 0.50 0.29 0.17 0.19 0.25 0.40 0.51 0.51 0.46 0.40 0.37 0.36 0.36 0.35 0.33 0.31 0.28 0.25 0.21 0.17 0.11 0.06 0.03 0.02 0.03 0.02 0.01 0.00 0.00 0.00 0.00
0.45 0.38 0.27 0.35 0.44 0.47 0.50 0.52 0.52 0.55 0.58 0.58 0.48 0.28 0.16 0.14 0.18 0.27 0.38 0.42 0.38 0.35 0.32 0.30 0.29 0.27 0.24 0.22 0.21 0.18 0.16 0.13 0.08 0.04 0.02 0.01 0.01 0.01 0.01 0.00 0.00 0.00 0.00
0.47 0.45 0.30 0.31 0.40 0.42 0.45 0.52 0.53 0.51 0.51 0.50 0.40 0.22 0.16 0.17 0.20 0.27 0.35 0.36 0.32 0.30 0.26 0.24 0.22 0.19 0.15 0.14 0.13 0.11 0.09 0.07 0.04 0.01 0.01 0.00 0.00 0.00 0.00 0.00 0.00 0.00 0.00
0.40 0.45 0.34 0.29 0.35 0.31 0.34 0.44 0.48 0.46 0.46 0.44 0.32 0.20 0.15 0.20 0.24 0.28 0.33 0.31 0.26 0.23 0.19 0.17 0.15 0.11 0.09 0.07 0.06 0.05 0.04 0.02 0.01 0.01 0.00 0.00 0.00 0.00 0.00 0.00 0.00 0.00 0.00
0.35 0.42 0.33 0.24 0.25 0.28 0.30 0.35 0.39 0.38 0.37 0.35 0.25 0.16 0.13 0.18 0.20 0.21 0.22 0.20 0.16 0.14 0.11 0.09 0.08 0.05 0.04 0.04 0.03 0.02 0.01 0.01 0.00 0.00 0.00 0.00 0.00 0.00 0.00 0.00 0.00 0.00 0.00
0.35 0.41 0.33 0.21 0.19 0.21 0.24 0.29 0.30 0.28 0.26 0.23 0.16 0.11 0.11 0.13 0.13 0.13 0.11 0.09 0.08 0.07 0.06 0.05 0.04 0.02 0.02 0.01 0.01 0.01 0.00 0.00 0.00 0.00 0.00 0.00 0.00 0.00 0.00 0.00 0.00 0.00 0.00
0.31 0.35 0.30 0.19 0.14 0.15 0.18 0.22 0.21 0.19 0.18 0.13 0.08 0.07 0.08 0.08 0.07 0.06 0.05 0.04 0.05 0.05 0.04 0.03 0.02 0.01 0.01 0.00 0.00 0.00 0.00 0.00 0.00 0.00 0.00 0.00 0.00 0.00 0.00 0.00 0.00 0.00 0.00